Dewpoint
60 60 61 57 55 57 51 46 40 44 43 38 30 26 26 27 25 21 20 26 29 35 34 37 36 35 36 40 33 43 45 45 47 49 50 53 45 40 49 65 68 68 68 70 71 72 72 73 73 72 72 72 72 72 72 72 73 73 73 73 73 73 73 72 72 72 71 71 71 71 71 71 71 71 71 71 71 71 71 70 70 70 70 70 71 71 71 71 71 71 71 71 72 71 71 71 71
49 58 57 50 49 51 48 45 39 34 35 36 34 29 24 22 20 18 24 28 27 37 45 36 38 38 40 42 39 43 48 50 49 53 51 46 38 40 62 68 67 67 68 70 71 71 71 72 73 72 72 72 72 72 71 72 72 72 72 73 72 73 72 72 72 71 71 70 71 71 71 70 71 71 71 71 71 71 71 70 70 70 69 69 70 71 70 70 71 70 70 71 71 72 72 72 71
42 46 57 49 47 47 42 38 35 34 28 24 27 29 25 22 18 17 18 28 32 32 39 38 39 45 48 33 49 44 47 49 49 49 46 41 38 52 64 67 67 68 69 70 70 70 70 72 73 72 72 72 72 72 71 71 71 71 72 72 72 72 72 72 71 71 70 70 71 71 71 70 70 71 71 71 70 71 71 70 69 69 69 69 70 70 70 70 70 70 70 70 72 72 72 72 71
50 46 49 51 42 45 42 35 28 26 26 26 22 20 21 23 20 19 16 33 32 35 39 39 45 51 50 41 40 46 47 52 50 46 44 40 44 55 64 66 68 68 68 68 69 69 70 72 73 72 72 72 72 72 71 71 71 71 71 71 72 72 71 71 71 71 70 70 71 71 71 71 72 71 71 70 70 71 71 70 69 69 69 69 69 70 70 70 69 69 70 70 71 72 73 72 72
42 45 48 43 37 31 27 30 29 26 21 20 20 18 15 16 17 17 19 25 31 34 33 37 37 45 50 47 44 44 47 50 52 52 44 48 50 58 64 65 67 67 67 67 68 69 70 73 73 73 72 72 72 72 71 70 71 71 71 71 71 71 71 71 70 70 70 70 70 71 71 72 72 72 71 70 70 70 71 71 70 68 68 69 69 70 70 69 69 69 71 71 72 73 73 72 72
38 41 49 38 31 32 30 26 25 23 24 22 17 15 14 13 19 18 20 23 36 37 37 35 36 46 50 56 57 51 47 46 48 52 54 53 53 60 63 65 66 65 65 66 67 69 71 73 73 73 72 72 72 72 71 71 70 71 70 70 70 71 70 70 70 70 70 70 70 71 71 71 72 72 71 70 70 69 70 71 71 70 68 68 68 69 69 69 69 69 72 72 72 73 72 73 73
39 44 39 36 32 28 22 20 20 19 19 21 20 17 15 14 18 20 20 21 22 27 30 32 43 46 47 53 57 57 60 52 51 56 57 53 55 60 62 65 64 64 65 66 68 70 71 73 73 73 72 72 72 71 71 71 71 71 70 70 70 70 70 70 70 70 70 69 70 70 71 71 72 71 71 70 70 70 69 70 69 69 69 68 68 69 69 68 69 70 72 72 72 72 72 72 73
44 43 36 32 30 27 23 20 17 16 17 20 19 16 15 15 15 18 19 19 19 21 26 42 45 50 50 44 58 60 60 58 54 59 58 53 56 59 60 63 64 63 64 67 69 70 73 73 73 73 72 72 72 71 71 71 71 70 70 70 70 70 70 70 70 70 70 69 69 70 70 70 71 71 71 71 70 70 69 69 69 69 68 68 68 68 69 69 70 71 71 72 72 71 72 72 72
33 37 39 33 31 30 26 25 22 20 16 16 16 19 35 15 14 13 17 19 19 27 32 42 43 46 51 50 56 58 60 60 57 61 58 54 56 57 58 63 62 63 65 68 70 71 71 73 73 73 72 72 72 71 71 71 71 70 70 70 69 69 70 70 70 70 70 69 69 69 70 71 71 71 71 70 69 70 70 69 69 68 68 67 67 68 69 69 69 71 71 72 72 72 72 72 72
27 30 31 30 26 25 26 27 26 25 23 21 15 14 14 14 13 12 16 18 19 30 33 36 43 47 50 54 57 58 61 60 61 58 57 55 56 56 59 61 62 64 67 70 70 70 70 73 73 73 73 72 72 71 71 71 70 70 69 69 69 69 69 69 69 69 69 69 69 69 70 71 71 71 70 70 69 70 70 70 69 68 68 68 69 69 69 69 70 71 72 71 71 71 71 72 72
26 27 29 27 24 21 23 25 27 27 26 24 22 16 15 17 15 12 16 17 17 24 26 37 39 51 51 54 62 60 59 60 60 60 56 56 57 56 61 62 64 67 70 69 69 69 70 71 73 73 73 72 72 72 71 71 70 70 69 68 69 68 68 69 69 68 68 68 69 70 72 71 71 71 70 70 70 70 70 69 69 68 68 69 69 69 69 69 70 71 72 71 71 71 71 71 71
28 26 27 24 23 22 20 19 20 23 26 24 23 21 17 17 18 13 13 15 17 21 39 41 46 48 52 57 59 58 57 59 58 59 58 59 58 58 61 64 64 68 69 68 67 68 68 70 71 73 73 72 72 72 72 71 70 70 69 68 68 68 69 69 68 69 69 69 70 72 72 71 71 70 71 71 70 70 69 69 69 69 69 68 69 69 69 69 70 71 72 71 71 71 71 71 71
24 28 31 25 22 21 20 20 18 19 17 18 19 20 20 17 17 16 15 16 17 16 38 41 46 46 46 57 59 59 57 59 59 58 59 59 60 59 61 63 65 68 68 68 67 66 67 68 68 70 72 72 72 72 71 71 71 70 69 68 68 68 69 68 68 69 69 69 70 72 72 71 70 70 70 70 69 69 69 69 69 69 69 68 69 68 68 69 70 71 71 71 70 71 70 70 70
23 26 26 27 28 25 23 21 20 18 15 16 15 16 17 17 17 17 17 16 16 12 27 44 43 48 56 59 60 58 57 59 60 59 60 60 60 60 62 64 68 68 67 67 66 66 66 66 68 69 71 71 71 72 71 71 71 70 69 69 69 69 69 69 69 69 69 70 70 71 71 71 70 70 70 70 70 69 69 69 69 69 68 68 69 68 68 68 69 71 71 71 70 70 70 70 70
23 24 24 30 26 22 24 26 25 23 21 20 17 17 16 20 19 18 19 18 17 17 43 42 44 45 54 57 57 58 59 59 59 61 59 59 60 62 64 66 67 66 66 66 65 65 64 65 65 69 71 70 70 70 71 70 71 71 70 69 69 70 70 69 69 69 70 71 71 71 71 71 70 70 70 70 70 69 69 69 69 69 68 68 68 68 68 68 69 70 71 71 70 71 71 70 70
25 24 25 26 24 22 24 25 24 22 20 22 21 18 19 19 21 21 21 21 19 20 42 43 44 40 49 54 56 59 60 59 61 61 60 59 63 65 65 65 65 64 65 66 65 64 64 64 64 67 70 70 70 70 70 70 71 71 70 70 70 70 70 69 69 69 70 70 71 71 71 70 70 70 70 69 69 69 69 68 69 68 68 68 68 68 68 68 68 69 71 71 71 71 71 70 70
22 24 23 23 21 22 25 23 21 21 20 22 20 20 20 21 21 22 23 23 21 20 43 43 41 45 44 49 55 60 59 60 61 60 61 62 64 64 65 65 64 65 66 65 65 65 65 64 63 65 68 69 69 69 69 70 70 71 71 71 71 70 70 70 69 69 69 70 70 71 71 70 70 70 70 68 69 68 69 68 69 68 68 68 69 68 68 68 68 69 70 71 71 71 71 70 70
18 19 20 20 22 21 21 23 25 25 25 26 24 23 20 20 21 21 21 20 21 21 25 40 43 46 45 48 51 60 60 59 60 59 59 61 63 63 63 63 64 64 64 64 65 64 64 63 64 64 68 69 69 69 69 70 71 70 69 70 70 70 70 70 69 68 69 69 70 70 70 69 69 69 69 69 68 68 68 68 69 68 68 68 68 68 68 68 68 69 70 71 71 71 70 68 69
14 16 18 18 18 20 21 23 26 23 24 26 26 25 22 21 22 22 21 18 21 20 23 39 43 45 47 47 56 61 60 60 60 60 59 60 61 62 62 62 63 64 64 63 64 64 64 64 65 64 67 69 69 68 68 70 69 69 68 69 68 69 69 69 67 67 66 67 68 69 70 69 69 69 70 69 68 69 67 69 69 68 68 68 68 68 69 68 68 68 70 71 71 70 69 67 67
12 14 14 16 18 18 18 19 19 23 25 25 25 26 26 26 26 27 23 20 20 20 39 39 44 47 48 47 58 61 61 60 61 62 59 59 60 61 61 61 62 64 64 64 63 64 63 64 65 64 65 68 68 68 69 69 69 69 68 69 68 68 68 66 64 64 63 66 66 68 70 70 69 69 69 70 69 68 68 69 69 68 68 68 69 68 68 69 68 69 69 70 70 69 65 68 68
7 10 11 12 14 16 18 18 16 17 19 19 21 24 24 24 25 24 24 23 20 20 21 42 44 49 49 54 59 63 63 61 62 62 63 60 60 63 63 63 63 63 64 64 64 64 63 64 65 64 65 67 68 69 69 68 68 68 68 69 68 68 67 66 64 65 64 65 66 68 67 69 68 68 69 69 69 68 68 67 67 67 67 67 68 67 66 64 68 62 66 69 67 66 63 65 67
5 5 8 10 11 12 15 16 16 17 18 16 16 15 16 20 23 21 21 22 18 22 21 33 44 53 56 62 64 65 64 65 64 63 63 64 65 65 65 65 66 64 65 63 64 64 64 64 64 64 67 65 66 68 69 68 68 66 67 68 68 68 68 65 64 64 63 65 65 65 66 67 67 67 69 69 68 68 68 66 66 66 65 65 67 65 64 64 63 60 59 61 60 61 62 64 68
2 3 4 6 7 9 11 12 14 18 17 16 16 15 18 18 19 18 21 22 20 24 24 23 44 56 60 62 63 63 63 64 64 63 63 62 62 67 68 65 64 63 63 64 65 64 64 65 65 66 67 65 66 68 69 68 67 66 68 68 68 68 67 65 63 63 64 63 65 64 66 66 66 66 68 68 67 68 67 66 66 65 64 64 65 64 64 63 60 60 59 59 57 56 58 62 66
-0 -1 2 3 3 3 7 10 12 13 13 15 16 15 16 17 17 19 17 20 21 24 24 24 39 53 61 61 62 62 63 63 64 64 63 62 63 65 67 67 65 64 62 64 64 65 64 65 66 66 66 66 67 68 68 67 67 65 67 68 68 68 67 64 64 64 66 63 64 64 66 65 64 66 66 67 67 67 67 66 66 64 64 64 64 63 63 61 60 59 59 57 54 53 55 59 67
-6 -2 0 0 0 1 3 5 8 9 10 10 12 14 15 14 16 17 18 19 20 21 22 22 34 52 57 59 61 62 64 64 65 65 65 65 66 66 66 69 66 65 65 65 64 65 65 64 64 65 67 67 67 66 66 67 67 65 67 68 68 69 68 65 64 64 65 64 65 64 64 67 64 66 65 65 65 66 66 67 65 63 64 63 64 62 63 62 60 58 60 58 56 56 58 66 68
-4 -4 -3 -2 -1 1 2 1 3 6 8 9 10 11 12 12 15 15 18 19 20 19 22 22 40 38 55 56 59 62 64 64 65 64 63 64 66 65 65 66 66 66 66 66 65 65 64 63 63 65 66 67 66 66 66 66 67 65 66 66 66 68 68 67 68 64 65 64 64 64 64 66 69 65 65 64 64 66 66 66 65 64 64 64 64 60 61 65 63 59 60 59 54 58 64 66 68
1 -2 -1 0 0 -1 0 2 5 6 7 6 5 8 11 13 13 13 29 19 20 20 20 20 37 37 49 54 60 62 63 64 64 61 61 62 65 66 66 68 67 67 68 67 66 65 66 64 64 65 66 67 65 65 67 67 67 66 65 65 67 67 68 68 67 65 65 64 64 67 65 65 67 67 67 64 65 66 66 68 65 65 65 63 65 60 61 66 65 62 63 62 66 67 68 68 67
-1 -2 -1 0 1 0 2 5 8 10 6 6 11 10 9 5 10 12 14 32 25 19 20 18 20 31 44 54 59 59 62 63 62 62 62 63 66 68 68 67 68 67 68 67 66 66 66 65 65 64 66 68 66 64 65 66 66 65 65 65 66 67 68 67 65 65 63 63 64 66 68 67 67 66 69 66 65 67 66 68 67 67 66 66 66 62 64 65 62 60 62 66 67 68 68 68 68
-2 -1 1 1 0 -1 2 5 5 9 9 11 11 9 -2 6 8 12 11 15 36 31 23 20 17 21 53 52 57 58 59 61 61 63 65 66 68 68 69 69 68 67 68 68 67 67 66 66 66 66 67 68 66 64 63 65 66 65 65 64 65 67 68 66 66 64 65 65 66 65 67 67 67 67 70 67 66 66 67 68 68 68 68 68 68 67 66 67 65 65 67 69 68 68 68 68 67
3 2 1 0 -0 -2 -2 -1 4 7 9 11 11 11 12 13 14 12 25 25 28 27 22 22 21 20 26 52 55 55 59 63 63 67 68 68 69 69 69 69 68 67 67 67 68 67 67 67 67 67 68 67 67 65 65 63 64 65 65 65 66 66 67 66 66 64 66 65 67 66 67 65 67 67 69 68 68 68 67 68 67 68 67 67 67 67 66 67 65 67 68 70 69 67 67 69 68
-2 -3 -3 -2 -2 -2 -1 -1 -0 2 6 8 9 12 11 10 10 12 26 32 21 16 22 23 23 23 40 51 50 54 62 64 65 67 69 69 69 70 70 70 70 69 68 67 68 67 67 67 67 67 68 67 67 65 64 64 64 62 63 64 66 66 66 65 65 67 66 65 65 67 67 66 66 67 68 68 67 68 66 67 66 66 67 67 64 67 67 65 67 68 69 68 68 67 66 67 67
-4 -3 -3 -4 -4 -4 -3 -1 -4 -7 -3 4 6 11 13 13 11 10 13 21 23 22 25 28 28 30 39 50 51 58 61 64 66 67 69 69 70 70 70 70 71 71 69 68 68 68 67 67 67 67 68 67 67 67 65 65 65 64 63 65 66 66 65 65 67 66 64 64 64 66 66 67 67 67 67 68 68 67 64 65 65 66 66 66 64 67 66 66 69 69 69 68 67 67 67 67 68
-3 -3 -5 -6 -6 -8 -8 -6 -6 -9 -12 -7 0 5 10 11 13 15 14 16 26 24 27 28 32 37 34 51 55 57 57 62 66 67 68 69 69 70 72 72 69 69 71 70 69 68 67 68 68 68 68 68 68 68 66 66 66 65 64 64 66 66 65 64 64 66 66 64 64 64 66 67 67 66 67 67 68 66 65 65 65 67 67 66 67 67 66 69 68 68 68 69 68 67 67 66 66
2 -2 -2 -4 -6 -8 -10 -10 -10 -10 -12 -13 -8 -1 3 5 11 15 17 23 22 20 26 28 30 31 33 43 55 54 55 57 62 65 66 68 67 71 71 69 69 68 69 70 69 68 67 68 68 68 68 68 68 68 66 67 65 66 65 63 66 65 65 64 64 63 64 63 64 63 66 66 67 65 67 66 67 66 67 66 66 67 66 67 67 68 68 68 69 69 68 69 68 66 65 64 65
2 4 5 -2 -4 -5 -7 -10 -12 -12 -12 -12 -10 -7 -2 2 6 10 17 20 21 17 20 19 21 24 25 29 42 52 51 52 59 63 65 68 68 70 69 69 70 69 69 70 69 69 68 68 68 68 68 67 68 68 66 68 66 67 67 66 66 65 65 65 64 63 63 64 63 64 65 66 66 65 66 66 67 67 68 68 70 71 69 71 71 68 67 67 68 69 68 68 68 67 65 65 64
-1 -2 -3 -5 -5 -2 -5 -8 -8 -10 -13 -12 -10 -9 -7 -2 4 9 13 22 16 11 19 25 21 19 21 28 30 31 48 51 57 61 66 67 66 69 69 71 71 71 71 70 69 70 69 68 68 68 68 68 68 68 66 66 64 65 64 64 64 63 63 63 64 63 63 62 63 62 64 66 64 66 65 66 68 69 68 68 70 70 70 71 69 67 66 67 68 67 68 67 67 66 66 65 64
1 1 -0 0 -1 -2 -4 -1 3 -10 -11 -12 -11 -9 -8 -3 -0 5 9 13 15 14 16 18 19 17 21 18 28 33 38 48 55 59 63 65 66 69 71 71 71 71 71 70 69 68 69 67 68 67 68 68 67 67 65 65 63 64 64 63 63 64 63 63 64 64 63 63 61 60 63 66 64 66 66 66 67 69 69 70 70 71 70 69 70 69 67 67 67 67 67 67 66 65 65 64 63
-4 -6 -5 -7 -7 -3 0 1 2 -2 -4 -5 -6 -9 -3 -6 1 6 9 13 11 11 17 18 18 19 22 26 28 31 39 48 53 55 59 61 63 69 70 70 71 70 70 69 69 68 69 68 68 68 69 68 68 67 66 66 64 63 63 63 63 63 62 62 62 64 65 63 61 60 64 66 64 66 67 66 68 68 69 69 69 70 70 69 69 69 67 67 66 67 67 66 66 65 65 64 64
-3 -7 -10 -9 -7 -7 -6 -4 -0 1 1 2 -7 -9 2 0 4 7 9 12 14 15 17 22 21 19 27 25 28 31 32 39 51 53 55 59 68 71 71 72 70 69 69 69 69 68 68 68 68 68 68 67 68 67 66 65 65 65 65 64 63 63 64 64 63 63 65 60 61 61 66 66 65 64 66 66 67 67 68 69 68 70 69 69 70 68 67 67 67 66 66 66 65 66 65 66 64
1 -2 -2 -3 -4 -6 -6 -5 -3 -2 2 0 0 -6 -1 7 9 10 11 13 14 25 18 22 31 25 22 25 27 30 31 35 46 51 52 59 65 68 68 70 69 68 68 69 68 69 69 68 68 68 68 68 67 68 66 67 66 67 67 66 66 65 63 64 66 65 66 61 61 62 67 66 65 63 64 64 65 66 68 69 69 69 69 69 68 67 67 66 66 66 67 67 66 64 64 64 64
2 -1 -4 -7 -7 -4 -4 -5 -6 -5 -2 -2 -1 2 0 2 4 7 10 13 12 11 11 17 19 25 26 28 29 32 30 33 39 47 54 56 61 65 68 69 69 68 68 69 69 68 69 69 69 68 68 68 68 68 67 67 67 67 67 67 67 66 66 65 65 63 65 61 60 62 65 66 65 64 65 65 64 67 68 69 69 69 69 69 68 68 67 67 66 67 66 67 66 64 63 64 64
5 2 -1 -3 -2 -3 -3 -2 -3 -2 -1 -3 -3 -0 1 2 -1 3 9 12 12 12 13 12 15 19 18 23 30 35 32 34 40 48 49 53 61 64 67 68 69 69 69 69 68 67 68 69 69 69 68 68 68 68 67 67 66 65 66 64 65 64 64 63 63 63 63 62 58 61 63 65 65 64 65 65 64 66 68 68 69 68 68 69 69 68 68 68 66 66 65 67 66 66 64 63 63
10 6 3 0 -2 -3 -4 -6 -4 -1 1 -0 -3 -1 1 1 -1 -0 4 6 5 8 10 14 14 17 13 20 29 32 38 34 38 47 47 49 67 68 69 69 69 68 68 68 67 67 67 68 69 69 68 68 68 68 67 68 67 66 66 64 65 64 63 63 64 65 64 64 62 63 63 66 64 65 65 64 65 65 67 68 69 69 68 69 69 69 67 66 66 66 67 67 67 65 66 63 62
9 9 8 4 2 -0 -3 -5 -3 -2 0 0 1 -1 1 2 2 4 3 6 5 5 5 9 15 12 12 18 28 34 30 34 36 38 47 50 67 68 68 69 69 69 69 68 67 67 67 68 68 68 68 68 68 68 67 68 66 66 66 65 65 65 64 64 65 65 66 64 63 64 64 66 65 64 65 64 64 65 66 68 68 68 68 69 69 69 69 68 67 67 67 67 66 66 65 64 63
10 9 6 2 2 2 -0 -3 -3 2 6 4 0 1 3 4 9 6 7 -1 -2 3 3 6 12 18 19 19 22 25 33 37 41 41 42 50 66 67 67 68 69 69 68 68 68 68 68 68 68 68 68 68 68 68 67 68 67 67 67 66 65 66 66 66 65 65 65 64 64 65 65 65 66 65 64 65 65 64 65 67 67 68 69 69 68 68 69 69 67 67 67 66 65 66 65 65 65
11 10 8 6 3 2 2 -0 -1 3 5 8 5 1 1 2 5 6 7 3 3 3 3 7 14 20 19 25 22 22 23 32 31 35 49 46 66 66 67 67 68 68 68 68 69 68 68 67 67 68 67 68 68 69 68 68 68 68 67 67 66 66 67 66 65 64 64 64 63 64 65 65 65 66 65 64 65 64 65 66 67 67 68 69 67 67 69 68 67 66 66 66 66 65 65 65 64
14 12 10 7 5 4 3 3 2 3 4 3 2 4 1 0 4 5 5 5 2 1 3 4 9 15 18 23 30 33 27 27 26 31 40 55 65 65 65 68 68 68 69 67 67 68 68 67 66 66 66 68 69 68 68 68 68 68 67 67 67 66 67 66 65 64 64 63 62 63 64 64 64 64 66 66 65 65 66 66 67 67 69 69 69 68 69 67 67 67 66 66 66 66 65 65 63
13 12 10 8 9 5 7 6 5 3 3 1 1 1 3 1 3 3 4 1 0 2 -0 2 3 7 13 19 16 18 24 23 23 31 36 43 61 64 65 66 67 68 68 68 68 69 67 66 65 65 65 67 69 69 68 68 68 68 68 68 68 67 67 66 65 64 63 61 61 62 62 63 64 64 66 66 66 66 67 67 67 67 68 68 68 69 68 67 66 66 67 67 67 66 66 65 64
15 13 12 10 9 9 6 6 6 5 2 3 0 -4 -2 2 5 5 1 -2 -2 0 -5 2 3 2 10 11 9 20 22 28 33 34 36 39 43 61 63 63 65 68 68 69 69 68 67 65 65 64 64 65 67 69 68 69 68 68 68 69 68 68 67 66 65 65 63 60 60 60 61 62 64 64 65 65 66 67 67 67 67 67 69 69 69 68 68 67 67 67 67 66 66 66 66 66 64
25 19 14 11 9 11 8 6 6 5 4 3 0 -1 -5 -1 2 4 2 2 -0 -1 6 4 4 14 11 6 13 17 21 23 26 28 27 36 37 42 61 63 64 69 69 68 68 68 67 66 64 64 64 65 66 68 69 69 68 68 69 69 68 68 67 67 66 64 63 62 61 61 62 63 64 64 65 65 65 66 67 67 68 68 69 69 69 68 68 67 68 67 67 66 66 66 66 66 65
15 18 16 25 20 11 12 9 8 6 5 4 7 11 9 -2 1 1 2 -1 -1 -0 2 6 10 6 22 10 5 9 12 17 18 18 23 29 45 45 61 63 64 68 68 68 68 67 66 65 64 64 64 65 66 67 68 69 68 69 69 69 69 68 67 67 67 66 65 65 64 64 64 64 64 64 64 65 65 66 67 67 68 68 68 68 68 68 68 68 68 67 66 66 66 66 66 66 66
14 13 13 14 15 26 19 17 19 16 11 13 12 13 10 10 14 12 5 -1 -3 -1 -1 8 5 3 6 9 13 12 11 12 14 19 26 30 37 47 55 63 68 68 69 68 68 67 66 64 64 64 64 64 65 66 69 69 69 69 69 69 69 69 67 68 67 67 67 67 66 65 65 65 65 65 65 65 65 66 67 67 68 68 68 68 69 68 68 67 67 66 66 66 65 65 65 66 66
17 14 13 12 26 21 22 22 20 19 16 12 15 12 10 9 8 8 10 -0 0 -1 -2 -3 3 4 20 18 18 26 26 17 28 30 29 32 32 48 53 63 66 67 68 68 67 67 66 65 64 63 63 64 64 64 68 69 69 69 69 69 69 69 68 68 68 68 67 68 67 67 66 66 66 66 65 65 65 65 67 67 67 68 68 68 68 68 67 67 66 66 65 65 65 65 66 66 65
19 17 16 15 16 16 17 12 15 16 15 14 10 8 6 3 7 8 5 1 1 -0 -0 1 11 11 12 20 33 28 26 32 31 28 37 37 33 40 53 57 64 65 66 67 67 67 66 65 65 64 63 64 64 65 67 69 69 69 69 69 70 69 69 68 68 68 68 68 68 67 67 66 66 66 65 65 65 65 66 67 67 68 68 68 68 67 67 66 66 66 65 65 65 65 66 65 65
19 17 17 13 17 15 19 21 14 13 13 13 11 8 4 3 7 5 6 8 6 3 1 -1 -0 2 6 13 17 21 20 24 30 28 28 32 38 38 42 62 61 64 66 67 66 67 66 66 66 66 65 65 65 66 68 69 69 69 69 69 70 70 69 69 69 68 69 68 67 67 67 67 67 66 65 65 65 64 66 67 67 67 68 68 67 67 67 67 66 66 66 65 65 65 64 64 65
23 22 17 14 12 12 10 18 15 19 14 13 9 5 3 2 4 6 6 8 9 4 5 6 6 8 9 12 5 8 19 27 27 27 27 27 39 47 40 56 61 61 63 66 67 67 67 67 67 68 69 69 68 68 68 69 69 69 69 69 70 69 69 68 69 69 68 68 67 66 67 67 67 66 65 65 64 64 65 66 67 67 67 68 67 67 67 66 66 66 66 65 65 64 64 64 64
21 18 15 14 17 16 9 14 11 12 12 12 12 10 6 8 5 5 5 7 7 12 11 10 12 10 10 10 19 19 18 24 21 22 25 30 37 45 52 58 52 62 64 66 66 67 68 69 68 68 69 68 68 68 69 69 70 69 69 69 69 70 69 69 69 69 69 68 67 66 66 67 67 66 65 65 64 64 64 65 66 66 66 67 67 67 67 66 65 66 65 65 64 63 63 63 63
27 24 17 14 17 18 13 14 13 11 13 13 12 10 10 9 1 8 6 5 8 4 8 13 13 19 16 16 24 31 28 28 29 22 26 29 33 38 37 39 48 43 57 61 63 64 64 66 68 68 68 68 68 69 69 69 69 69 69 69 69 69 69 69 69 69 69 68 68 67 67 67 67 66 66 65 65 64 64 65 64 65 65 66 66 67 67 66 65 65 64 64 64 62 61 61 62